Home   Weather   Samarkand   Past weeks
Flag for Uzbekistan

Past Weather in Samarkand, Uzbekistan — Yesterday and Last 2 Weeks

Now
61 °F

Clear.


Feels Like: 61 °F
Forecast: 85 / 57 °F
Wind: 7 mph from Southeast

Location: Samarkand

Current Time: May 27, 2019 at 4:39:02 am

Latest Report: May 27, 2019 at 3:30 am


Visibility: 4 mi

Pressure: 30.01 "Hg (27.56 "Hg at 721m altitude)

Humidity: 68%

Dew Point: 50 °F

Location of SamarkandLocation

Past Weather in Samarkand — Graph

°F

Samarkand Temperature Yesterday

Maximum temperature yesterday: 81 °F (at 3:00 pm)
Minimum temperature yesterday: 54 °F (at 4:00 am)
Average temperature yesterday: 69 °F

High & Low Weather Summary for the Past Weeks

 TemperatureHumidityPressure
High88 °F (May 21, 10:30 am)100% (May 17, 3:00 am)30.09 "Hg (May 17, 3:00 am)
Low52 °F (May 19, 2:30 am)19% (May 21, 11:30 am)29.80 "Hg (May 16, 3:00 am)
Average68 °F55%29.94 "Hg
* Reported May 12 3:00 am — May 27 3:00 am, Samarkand. Weather by CustomWeather, © 2019

Note: Actual official high and low records may vary slightly from our data, if they occured in-between our weather recording intervals... More about our weather records

Advertising

Samarkand Weather History for the Previous 24 Hours

Scroll right to see more
 ConditionsComfort  
Time TempWeatherWind HumidityBarometerVisibility
3:00 am
Mon, May 27
61 °FClear.7 mph72%30.04 "Hg4 mi
2:30 am59 °FClear.12 mph77%30.04 "Hg4 mi
2:00 am59 °FClear.9 mph77%30.04 "Hg4 mi
1:30 am61 °FClear.9 mph72%30.04 "Hg4 mi
1:00 am61 °FClear.7 mph68%30.04 "Hg4 mi
12:00 am64 °FClear.5 mph56%30.07 "Hg4 mi
11:30 pm
Sun, May 26
66 °FClear.7 mph49%30.07 "Hg4 mi
11:00 pm66 °FClear.9 mph49%30.07 "Hg4 mi
10:30 pm64 °FClear.9 mph52%30.07 "Hg4 mi
10:00 pm66 °FClear.12 mph49%30.07 "Hg4 mi
9:30 pm66 °FClear.9 mph49%30.07 "Hg4 mi
9:00 pm66 °FClear.9 mph52%30.07 "Hg4 mi
8:30 pm68 °FClear.9 mph49%30.07 "Hg4 mi
8:00 pm68 °FClear.9 mph49%30.07 "HgN/A
7:30 pm73 °FClear.9 mph41%30.07 "HgN/A
7:00 pm75 °FClear.9 mph39%30.07 "HgN/A
6:30 pm77 °FClear.12 mph34%30.07 "HgN/A
6:00 pm79 °FClear.12 mph32%30.07 "HgN/A
5:30 pm79 °FClear.12 mph30%30.07 "HgN/A
5:00 pm81 °FClear.9 mph28%30.07 "HgN/A
4:30 pm79 °FClear.7 mph30%30.07 "HgN/A
4:00 pm79 °FClear.7 mph32%30.07 "HgN/A
3:30 pm81 °FClear.7 mph32%30.07 "HgN/A
3:00 pm81 °FClear.7 mph30%30.07 "HgN/A
2:30 pm79 °FClear.7 mph32%30.07 "HgN/A
2:00 pm79 °FClear.7 mph32%30.09 "HgN/A
1:30 pm79 °FClear.7 mph30%30.09 "HgN/A
1:00 pm79 °FClear.7 mph30%30.09 "HgN/A
12:30 pm77 °FClear.7 mph34%30.09 "HgN/A
12:00 pm77 °FClear.7 mph32%30.09 "HgN/A
11:30 am75 °FClear.7 mph36%30.09 "HgN/A
11:00 am75 °FClear.7 mph36%30.09 "HgN/A
10:30 am73 °FClear.7 mph41%30.09 "HgN/A
10:00 am73 °FClear.7 mph38%30.09 "HgN/A
9:30 am73 °FClear.7 mph44%30.09 "HgN/A
9:00 am72 °FClear.7 mph47%30.09 "HgN/A
8:30 am68 °FClear.7 mph49%30.09 "HgN/A
8:00 am66 °FClear.5 mph56%30.09 "HgN/A
7:30 am63 °FClear.9 mph64%30.09 "HgN/A
7:00 am61 °FClear.7 mph63%30.09 "HgN/A
6:00 am55 °FClear.7 mph72%30.07 "HgN/A
5:00 am54 °FClear.5 mph77%30.07 "HgN/A
4:30 am54 °FClear.5 mph77%30.07 "Hg4 mi
4:00 am54 °FClear.7 mph77%30.04 "Hg4 mi
Weather by CustomWeather, © 2019

See weather overview